Home > Weather > Hofheim am Taunus > Past weeks

Flag for Germany Past Weather in Hofheim am Taunus, Hesse, Germany — Yesterday and Last 2 Weeks

Now
73 °F

Sunny.


Feels Like: 77 °F
Forecast: 60 / 77 °F
Wind: 14 mph from North

Location: Wiesbaden Airport

Current Time: Aug 29, 2016 at 8:02:35 PM

Latest Report: Aug 29, 2016 at 6:58 PM


Visibility: N/A

Pressure: 30.11 "Hg

Humidity: 47%

Dew Point: 52 °F

Location of Hofheim am TaunusLocation

Past Weather in Hofheim am Taunus — Graph

°F

Hofheim am Taunus Temperature Yesterday

Maximum temperature yesterday: 91 °F (at 2:58 PM)
Minimum temperature yesterday: 64 °F (at 6:58 AM)
Average temperature yesterday: 76 °F

High & Low Weather Summary for the Past Weeks

 TemperatureHumidityPressure
High93 °F (Aug 27, 4:58 PM)89% (Aug 22, 6:58 AM)30.39 "Hg (Aug 22, 6:58 AM)
Low52 °F (Aug 18, 6:58 AM)22% (Aug 16, 5:58 PM)29.79 "Hg (Aug 18, 5:58 PM)
Average70 °F55%30.06 "Hg
* Reported Aug 14 6:58 PM — Aug 29 6:58 PM, Hofheim am Taunus, Weather by CustomWeather, © 2016

Note: Actual official high and low records may vary slightly from our data, if they occured in-between our weather recording intervals... More about our weather records

Advertising

Hofheim am Taunus Weather History for the Previous 24 Hours

Scroll right to see more
 ConditionsComfort  
Time TempWeatherWind HumidityBarometerVisibility
6:58 PM
Mon, Aug 29
73 °FSunny.14 mph47%30.11 "HgN/A
5:58 PM75 °FSunny.14 mph44%30.10 "HgN/A
4:58 PM77 °FOvercast.10 mph36%30.09 "HgN/A
3:58 PM77 °FPartly sunny.9 mph39%30.08 "HgN/A
2:58 PM77 °FPartly sunny.8 mph38%30.08 "HgN/A
1:58 PM78 °FPartly sunny.9 mph37%30.08 "HgN/A
12:58 PM75 °FBroken clouds.12 mph41%30.08 "HgN/A
11:58 AM75 °FPartly sunny.6 mph44%30.08 "HgN/A
10:58 AM73 °FSunny.9 mph48%30.07 "HgN/A
9:58 AM72 °FSunny.1 mph47%30.06 "HgN/A
8:58 AM68 °FSunny.No wind59%30.06 "HgN/A
7:58 AM64 °FScattered clouds.No wind73%30.06 "HgN/A
6:58 AM63 °FClear.No wind72%30.04 "HgN/A
5:58 AM63 °FClear.5 mph68%30.02 "HgN/A
4:58 AM64 °FPassing clouds.5 mph68%30.02 "HgN/A
3:58 AM66 °FPassing clouds.3 mph68%30.01 "HgN/A
2:58 AM68 °FMostly cloudy.5 mph69%30.00 "HgN/A
1:58 AM68 °FPassing clouds.2 mph69%30.00 "HgN/A
12:58 AM71 °FMostly cloudy.3 mph61%30.00 "HgN/A
11:58 PM
Sun, Aug 28
73 °FOvercast.5 mph56%30.00 "HgN/A
10:58 PM73 °FPassing clouds.2 mph53%29.98 "HgN/A
9:58 PM75 °FPassing clouds.7 mph51%29.96 "HgN/A
8:58 PM74 °FPartly sunny.8 mph52%29.95 "HgN/A
Weather by CustomWeather, © 2016

See weather overviewHow to use our weather pages